Location: ??????????
(54.8537°N, 38.8755°E)
Time: 03:20:35
(UTC+00:00)

Vanguard 2 Rocket - Pass Details

Date: 13 September 2024
Orbit: 553 x 3298 km, 32.9° (Epoch: 10 October)

Event Time Altitude Azimuth Distance (km) Brightness Sun altitude
Rises 04:53:59 0° 266° (W) 6,538 10.7 16.2°
Reaches altitude 10° 04:59:32 10° 253° (WSW) 5,852 10.6 17.0°
Maximum altitude 05:11:55 22° 212° (SSW) 5,237 10.8 18.7°
Drops below altitude 10° 05:24:50 10° 171° (S) 6,088 11.7 20.4°
Sets 05:30:54 0° 158° (SSE) 6,854 12.1 21.2°
